STARLINK-33803, 63517

Orbit data source: Space-Track

STARLINK-33803, 63517 is a payload satellite owned by SpaceX/Seattle (US) in LEO that was launched on Mon, 07 Apr 2025 UTC via an FALCON 9 launch vehicle from the Air Force Western Test Range (AFWTR). Payload-class satellites include a variety of spacecraft equipped with specific instruments for various scientific and technological missions. These include communications satellites like Starlink; space stations such as the ISS; scientific satellites like the Hubble; Earth observation satellites from companies like Planet Labs, Umbra, and HawkEye 360; GPS; miniature CubeSats for education and research; and military/defense satellites.

Loading next visibility...
Identifier
63517, 2025-071AA
Orbit
LEO
Country
Flag of USUS
Related business
Manufacturer
SpaceX/Seattle
Mission
Operational Commercial Communications
Bus & Motor
STARLINK V2MO, Unknown motor
Mass
575 kg wet, ~530 kg dry
Launch date (UTC)
2025-04-07 (7 months ago)
Launch vehicle
FALCON 9
Launch site
Air Force Western Test Range (AFWTR)
Object type
Payload
Rocket body
Debris
Shape & HBR
Box + 2 Pan, 17.7 m
Radar Cross Section
36.964 m², Large (>1 m²)

Expand to show TLE details & history
Last TLE update: 15 hours ago

TLE from 15 hours ago
0 STARLINK-33803
1 63517U 25071AA  25300.65891017  .00028076  00000-0  95626-3 0  9998
2 63517  53.1616  37.6958 0001581  78.9970 281.1209 15.30207721 32409
Epoch: 2025-10-27T15:48Z
TLE epoch observation values (Epoch: 2025-10-27T15:48:49.838Z)
Latitude
Longitude
124.23056°
Altitude
475.883 km
Speed
7.629 km/s
True Right ascension
02h 30m 46s
True Declination
0° 00' 00"
Sunlit
Object was in full shadow at epoch
Visualization orbit readout
Latitude
Unknown
Longitude
Unknown
Altitude
Unknown
Speed
Unknown
Apparent Right ascension
Unknown
Apparent Declination
Unknown
Sunlit
N/A
Visualization observer readout
Local Sidereal Time
02:19:32
Azimuth
Unknown
Elevation
Unknown
Doppler factor
Unknown
Orbital elements
Apogee altitude
476.532 km
Perigee altitude
474.365 km
Semi-major axis
6,853.585 km
Eccentricity
0.00016
Inclination
53.1616°
RAAN
37.6958°
Arg. of periapsis
78.997°
True anomaly
281.10312°
Mean anomaly
281.1209°
Eccentric anomaly
281.11201°
Mean motion
3.82531 °/min
Orbital period
94.11 mins
BSTAR
0.00095626
Loading maneuver chart data...
Computing Atmospheric mass density...
Loading historical data...
Loading historical data...
Loading historical data...
Loading historical data...
Loading historical data...
Loading historical data...
Loading historical data...

Documentation

Showing up to 5 results
|